TimeEDT,TemperatureF,Dew PointF,Humidity,Sea Level PressureIn,VisibilityMPH,Wind Direction,Wind SpeedMPH,Gust SpeedMPH,PrecipitationIn,Events,Conditions,WindDirDegrees,DateUTC
12:15 AM,28.4,23.0,80,30.31,10.0,Calm,Calm,-,N/A,,Clear,0,2013-03-10 05:15:00
12:35 AM,28.4,23.0,80,30.31,10.0,Calm,Calm,-,N/A,,Clear,0,2013-03-10 05:35:00
12:55 AM,28.4,23.0,80,30.31,10.0,Calm,Calm,-,N/A,,Clear,0,2013-03-10 05:55:00
1:15 AM,28.4,23.0,80,30.31,10.0,Calm,Calm,-,N/A,,Clear,0,2013-03-10 06:15:00
1:35 AM,26.6,23.0,86,30.31,10.0,Calm,Calm,-,N/A,,Clear,0,2013-03-10 06:35:00
1:55 AM,26.6,23.0,86,30.31,10.0,Calm,Calm,-,N/A,,Clear,0,2013-03-10 06:55:00
3:15 AM,26.6,23.0,86,30.32,10.0,Calm,Calm,-,N/A,,Clear,0,2013-03-10 07:15:00
3:35 AM,26.6,23.0,86,30.31,10.0,Calm,Calm,-,N/A,,Clear,0,2013-03-10 07:35:00
3:55 AM,26.6,23.0,86,30.31,10.0,Calm,Calm,-,N/A,,Clear,0,2013-03-10 07:55:00
4:15 AM,26.6,23.0,86,30.31,10.0,Calm,Calm,-,N/A,,Clear,0,2013-03-10 08:15:00
4:35 AM,26.6,23.0,86,30.30,10.0,Calm,Calm,-,N/A,,Clear,0,2013-03-10 08:35:00
4:55 AM,24.8,21.2,86,30.31,10.0,Calm,Calm,-,N/A,,Clear,0,2013-03-10 08:55:00
5:15 AM,24.8,23.0,93,30.31,10.0,Calm,Calm,-,N/A,,Clear,0,2013-03-10 09:15:00
5:35 AM,24.8,23.0,93,30.32,10.0,Calm,Calm,-,N/A,,Clear,0,2013-03-10 09:35:00
5:55 AM,24.8,21.2,86,30.32,10.0,Calm,Calm,-,N/A,,Clear,0,2013-03-10 09:55:00
6:15 AM,24.8,19.4,80,30.33,10.0,Calm,Calm,-,N/A,,Clear,0,2013-03-10 10:15:00
6:35 AM,24.8,21.2,86,30.33,10.0,Calm,Calm,-,N/A,,Clear,0,2013-03-10 10:35:00
6:55 AM,24.8,19.4,80,30.33,10.0,Calm,Calm,-,N/A,,Clear,0,2013-03-10 10:55:00
7:15 AM,24.8,19.4,80,30.34,10.0,Calm,Calm,-,N/A,,Clear,0,2013-03-10 11:15:00
8:35 AM,32.0,24.8,75,30.35,10.0,Calm,Calm,-,N/A,,Clear,0,2013-03-10 12:35:00
8:55 AM,35.6,28.4,75,30.35,10.0,Calm,Calm,-,N/A,,Clear,0,2013-03-10 12:55:00
9:15 AM,39.2,30.2,70,30.35,10.0,East,3.5,-,N/A,,Clear,90,2013-03-10 13:15:00
9:35 AM,39.2,30.2,70,30.35,10.0,SE,6.9,-,N/A,,Clear,130,2013-03-10 13:35:00
9:55 AM,41.0,30.2,65,30.36,10.0,ESE,6.9,-,N/A,,Clear,110,2013-03-10 13:55:00
10:15 AM,41.0,30.2,65,30.35,10.0,SE,5.8,-,N/A,,Clear,130,2013-03-10 14:15:00
10:35 AM,44.6,30.2,57,30.35,10.0,ESE,6.9,-,N/A,,Clear,120,2013-03-10 14:35:00
10:55 AM,44.6,30.2,57,30.35,10.0,ESE,6.9,-,N/A,,Clear,110,2013-03-10 14:55:00
11:15 AM,46.4,28.4,50,30.35,10.0,SE,5.8,-,N/A,,Clear,140,2013-03-10 15:15:00
11:35 AM,46.4,30.2,53,30.35,10.0,ESE,4.6,-,N/A,,Clear,120,2013-03-10 15:35:00
11:55 AM,48.2,28.4,46,30.35,10.0,ESE,5.8,-,N/A,,Clear,120,2013-03-10 15:55:00
12:15 PM,48.2,28.4,46,30.34,10.0,SE,5.8,-,N/A,,Clear,130,2013-03-10 16:15:00
12:35 PM,50.0,28.4,43,30.34,10.0,SE,3.5,-,N/A,,Partly Cloudy,140,2013-03-10 16:35:00
12:55 PM,50.0,28.4,43,30.34,10.0,SE,4.6,-,N/A,,Mostly Cloudy,130,2013-03-10 16:55:00
1:35 PM,51.8,28.4,41,30.33,10.0,ESE,5.8,-,N/A,,Scattered Clouds,120,2013-03-10 17:35:00
1:55 PM,53.6,28.4,38,30.32,10.0,South,6.9,-,N/A,,Mostly Cloudy,170,2013-03-10 17:55:00
2:15 PM,53.6,28.4,38,30.31,10.0,South,4.6,-,N/A,,Partly Cloudy,170,2013-03-10 18:15:00
2:35 PM,53.6,26.6,35,30.30,10.0,SSE,6.9,-,N/A,,Partly Cloudy,150,2013-03-10 18:35:00
2:55 PM,53.6,24.8,33,30.29,10.0,South,9.2,-,N/A,,Clear,170,2013-03-10 18:55:00
3:15 PM,55.4,26.6,33,30.28,10.0,South,9.2,-,N/A,,Clear,170,2013-03-10 19:15:00
3:35 PM,53.6,24.8,33,30.28,10.0,South,8.1,-,N/A,,Clear,180,2013-03-10 19:35:00
3:55 PM,55.4,26.6,33,30.27,10.0,South,10.4,-,N/A,,Clear,170,2013-03-10 19:55:00
4:15 PM,55.4,26.6,33,30.27,10.0,SE,9.2,-,N/A,,Partly Cloudy,140,2013-03-10 20:15:00
4:35 PM,55.4,26.6,33,30.26,10.0,SSE,8.1,-,N/A,,Mostly Cloudy,150,2013-03-10 20:35:00
4:55 PM,55.4,26.6,33,30.26,10.0,SSE,6.9,-,N/A,,Mostly Cloudy,150,2013-03-10 20:55:00
5:15 PM,55.4,28.4,36,30.26,10.0,SE,10.4,-,N/A,,Mostly Cloudy,140,2013-03-10 21:15:00
5:35 PM,55.4,28.4,36,30.25,10.0,SSE,8.1,-,N/A,,Clear,150,2013-03-10 21:35:00
5:55 PM,55.4,26.6,33,30.24,10.0,SSE,8.1,-,N/A,,Partly Cloudy,160,2013-03-10 21:55:00
6:15 PM,55.4,26.6,33,30.25,10.0,SSE,5.8,-,N/A,,Mostly Cloudy,160,2013-03-10 22:15:00
6:35 PM,55.4,24.8,31,30.26,10.0,South,9.2,-,N/A,,Mostly Cloudy,170,2013-03-10 22:35:00
6:55 PM,53.6,24.8,33,30.26,10.0,SSE,4.6,-,N/A,,Overcast,160,2013-03-10 22:55:00
7:15 PM,53.6,24.8,33,30.26,10.0,South,4.6,-,N/A,,Mostly Cloudy,170,2013-03-10 23:15:00
7:35 PM,50.0,24.8,37,30.26,10.0,South,4.6,-,N/A,,Clear,170,2013-03-10 23:35:00
7:55 PM,50.0,28.4,43,30.27,10.0,SSE,6.9,-,N/A,,Clear,150,2013-03-10 23:55:00
8:15 PM,48.2,33.8,58,30.27,10.0,ESE,8.1,-,N/A,,Clear,120,2013-03-11 00:15:00
8:35 PM,48.2,35.6,62,30.28,10.0,ESE,8.1,-,N/A,,Clear,120,2013-03-11 00:35:00
8:55 PM,46.4,35.6,66,30.27,10.0,ESE,6.9,-,N/A,,Clear,120,2013-03-11 00:55:00
9:15 PM,46.4,35.6,66,30.27,10.0,SE,5.8,-,N/A,,Clear,130,2013-03-11 01:15:00
9:35 PM,44.6,33.8,66,30.28,10.0,SE,8.1,-,N/A,,Clear,140,2013-03-11 01:35:00
10:15 PM,41.0,33.8,76,30.28,10.0,SE,8.1,-,N/A,,Clear,130,2013-03-11 02:15:00
10:35 PM,41.0,33.8,76,30.29,10.0,SE,5.8,-,N/A,,Clear,130,2013-03-11 02:35:00
10:55 PM,39.2,32.0,75,30.29,10.0,SE,3.5,-,N/A,,Clear,140,2013-03-11 02:55:00
11:15 PM,39.2,32.0,75,30.29,10.0,SE,4.6,-,N/A,,Clear,130,2013-03-11 03:15:00
11:35 PM,39.2,32.0,75,30.29,10.0,SE,3.5,-,N/A,,Clear,130,2013-03-11 03:35:00
11:55 PM,39.2,32.0,75,30.29,10.0,ESE,5.8,-,N/A,,Clear,120,2013-03-11 03:55:00
12:15 AM,37.4,32.0,81,30.29,10.0,ESE,3.5,-,N/A,,Clear,120,2013-03-11 04:15:00
12:35 AM,37.4,32.0,81,30.28,10.0,ESE,4.6,-,N/A,,Clear,120,2013-03-11 04:35:00